GW4954 Weather Reports


time (UTC)temp
F
wind
direction
speed
knots
gust
knots
rain 1hr
in
rain 24hr
in
rain mn
in
humidity
%
barometer
mb
20260507040415 45 16 0.0 0.9 0.00 0.00 0.00 84 1010.1
20260507035911 45 2 0.0 0.9 0.00 0.44 0.44 84 1010.1
20260507035407 45 19 1.7 2.6 0.00 0.44 0.44 84 1010.0
20260507034904 46 4 0.0 3.5 0.00 0.44 0.44 84 1010.0
20260507034401 45 34 0.9 1.7 0.00 0.44 0.44 84 1010.3
20260507033859 45 11 0.9 1.7 0.00 0.44 0.44 85 1010.2
20260507033357 45 19 0.9 1.7 0.00 0.44 0.44 85 1010.2
20260507032853 45 1 0.0 0.9 0.00 0.44 0.44 85 1010.3
20260507032350 45 140 0.9 2.6 0.00 0.44 0.44 85 1010.3
20260507031846 45 25 0.0 0.0 0.00 0.44 0.44 84 1010.3
20260507031343 46 26 0.0 0.0 0.00 0.44 0.44 82 1010.3
20260507030840 46 26 0.0 0.0 0.00 0.44 0.44 82 1010.4
20260507030337 46 26 0.0 0.0 0.00 0.44 0.44 82 1010.4
20260507025834 46 26 0.0 0.0 0.00 0.44 0.44 82 1010.4
20260507025332 46 26 0.0 0.0 0.00 0.44 0.44 82 1010.4
20260507024829 46 26 0.0 0.0 0.00 0.44 0.44 82 1010.4
20260507024326 46 26 0.0 0.0 0.00 0.44 0.44 82 1010.4
20260507023822 46 5 0.0 0.0 0.00 0.44 0.44 81 1010.4
20260507023319 46 9 0.0 0.0 0.00 0.44 0.44 81 1010.5
20260507022816 46 4 0.0 0.0 0.00 0.44 0.44 80 1010.4
20260507022312 46 3 0.0 0.0 0.00 0.44 0.44 80 1010.6
20260507021809 46 4 0.0 0.0 0.00 0.44 0.44 80 1010.5
20260507021304 46 356 0.0 0.0 0.00 0.44 0.44 80 1010.6
20260507020802 46 6 0.0 0.0 0.00 0.44 0.44 79 1010.8
20260507020259 46 18 0.9 1.7 0.00 0.44 0.44 78 1010.8
20260507015756 46 18 0.9 1.7 0.00 0.44 0.44 78 1010.9
20260507015253 46 6 0.0 0.0 0.00 0.44 0.44 77 1010.8
20260507014750 46 6 0.0 0.0 0.00 0.44 0.44 77 1010.9
20260507014246 46 45 0.9 0.9 0.00 0.44 0.44 77 1010.6
20260507013743 46 45 0.9 0.9 0.00 0.44 0.44 77 1011.1
20260507013241 46 336 0.0 0.9 0.00 0.44 0.44 77 1011.0
20260507012738 46 336 0.0 0.9 0.00 0.44 0.44 77 1011.0
20260507012233 46 358 0.0 0.9 0.00 0.44 0.44 77 1011.1
20260507011731 46 358 0.0 0.9 0.00 0.44 0.44 77 1011.1
20260507011228 46 9 0.0 0.0 0.00 0.44 0.44 77 1011.0
20260507010727 46 17 0.0 0.9 0.00 0.44 0.44 77 1010.8
20260507010223 46 9 0.0 0.0 0.00 0.44 0.44 77 1010.8
20260507005721 47 5 0.0 1.7 0.00 0.44 0.44 77 1010.9
20260507005217 47 26 0.9 0.9 0.00 0.44 0.44 77 1010.8
20260507004714 47 28 0.0 0.9 0.00 0.44 0.44 77 1010.8
20260507004212 47 4 0.9 1.7 0.00 0.44 0.44 77 1010.5
20260507003708 47 0 0.0 0.0 0.00 0.44 0.44 78 1010.6
20260507003203 47 23 0.0 0.9 0.00 0.44 0.44 78 1010.4
20260507002659 47 11 0.0 1.7 0.00 0.44 0.44 78 1010.3
20260507002155 47 5 0.9 0.9 0.00 0.44 0.44 78 1010.2
20260507001652 47 15 0.9 1.7 0.00 0.44 0.44 78 1010.2
20260507001150 47 25 0.0 0.9 0.00 0.44 0.44 77 1010.1
20260507000646 47 40 0.9 1.7 0.00 0.44 0.44 77 1010.0
20260507000141 47 40 0.9 1.7 0.00 0.44 0.44 77 1010.2
20260506235639 47 40 0.9 1.7 0.00 0.44 0.44 77 1010.0
20260506235139 47 23 0.9 1.7 0.00 0.44 0.44 77 1010.1
20260506234636 47 23 0.9 1.7 0.00 0.44 0.44 77 1010.1
20260506234133 47 4 0.0 0.9 0.00 0.44 0.44 77 1010.1
20260506233630 47 12 0.0 0.0 0.00 0.44 0.44 76 1010.0
20260506233127 47 25 1.7 1.7 0.00 0.44 0.44 76 1010.0
20260506232623 48 10 0.0 0.0 0.00 0.44 0.44 75 1010.1
20260506232119 48 12 0.0 0.0 0.00 0.44 0.44 74 1010.1
20260506231616 48 195 0.9 0.9 0.00 0.44 0.44 73 1010.1
20260506231115 48 195 0.9 0.9 0.00 0.44 0.44 73 1010.0
20260506230611 48 13 0.9 0.9 0.00 0.44 0.44 72 1009.9
20260506230108 48 14 0.0 0.0 0.00 0.44 0.44 70 1010.0
20260506225604 48 14 0.0 0.0 0.00 0.44 0.44 70 1009.9
20260506225101 48 14 0.0 0.0 0.00 0.44 0.44 70 1009.7
20260506224558 48 14 0.0 0.0 0.00 0.44 0.44 70 1010.1
20260506224055 49 3 0.9 0.9 0.00 0.44 0.44 70 1009.8
20260506223550 49 3 0.9 0.9 0.00 0.44 0.44 70 1009.9
20260506223047 49 4 0.0 0.9 0.00 0.44 0.44 70 1010.1
20260506222544 49 17 0.0 0.0 0.00 0.44 0.44 70 1010.1
20260506222040 49 11 0.9 0.9 0.00 0.44 0.44 70 1010.1
20260506221538 49 13 0.9 1.7 0.00 0.44 0.44 69 1010.1
20260506221036 49 55 1.7 1.7 0.00 0.44 0.44 67 1010.2
20260506220531 49 25 0.0 0.9 0.00 0.44 0.44 70 1010.2
20260506220027 49 25 0.0 0.9 0.00 0.44 0.44 70 1010.3
20260506215524 49 10 0.9 1.7 0.00 0.44 0.44 69 1009.9
20260506215020 49 356 0.0 0.0 0.00 0.44 0.44 71 1010.1
20260506214517 49 20 1.7 2.6 0.00 0.44 0.44 70 1010.1
20260506214014 49 29 1.7 1.7 0.00 0.44 0.44 70 1010.2
20260506213513 49 5 3.5 3.5 0.00 0.44 0.44 70 1010.1
20260506213009 48 6 0.0 0.0 0.00 0.44 0.44 72 1009.9
20260506212505 48 6 0.0 0.9 0.00 0.44 0.44 73 1010.1
20260506212000 48 6 0.0 0.0 0.00 0.44 0.44 73 1010.2
20260506211456 48 12 0.9 1.7 0.00 0.44 0.44 71 1010.1
20260506210954 48 7 0.0 0.9 0.00 0.44 0.44 73 1010.0
20260506210450 48 4 0.0 0.9 0.00 0.44 0.44 73 1010.3
20260506205947 48 0 0.0 0.0 0.00 0.44 0.44 74 1010.2
20260506205444 48 8 0.0 0.0 0.00 0.44 0.44 74 1010.4
20260506204940 48 36 0.0 0.9 0.00 0.44 0.44 74 1010.3
20260506204438 48 63 0.0 1.7 0.00 0.44 0.44 74 1010.4
20260506203935 48 17 0.0 0.9 0.00 0.44 0.44 75 1010.1
20260506203432 48 9 0.0 0.9 0.00 0.44 0.44 75 1010.1
20260506202929 48 6 0.0 1.7 0.00 0.44 0.44 75 1010.2
20260506202426 48 357 0.0 0.9 0.00 0.44 0.44 76 1010.3
20260506201922 48 19 0.9 1.7 0.00 0.44 0.44 75 1010.5
20260506201420 48 354 0.9 2.6 0.00 0.44 0.44 75 1010.3
20260506200916 48 5 0.0 1.7 0.00 0.44 0.44 76 1010.4
20260506200412 48 359 0.9 2.6 0.00 0.44 0.44 75 1010.5
20260506195909 48 354 0.0 0.9 0.00 0.44 0.44 74 1010.3
20260506195407 48 2 0.0 0.9 0.00 0.44 0.44 75 1010.3
20260506194903 47 5 0.9 0.9 0.00 0.44 0.44 75 1010.4
20260506194400 47 12 0.0 0.9 0.00 0.44 0.44 75 1010.4
20260506193857 47 355 0.0 0.9 0.00 0.44 0.44 77 1010.6
20260506193354 47 3 0.0 1.7 0.00 0.44 0.44 77 1010.8
20260506192850 47 25 0.9 0.9 0.00 0.44 0.44 76 1010.9
20260506192347 47 2 0.0 0.9 0.00 0.44 0.44 77 1010.8
20260506191844 46 3 0.9 0.9 0.00 0.44 0.44 77 1010.9
20260506191340 46 18 0.9 0.9 0.00 0.44 0.44 78 1010.8
20260506190838 47 27 0.9 0.9 0.00 0.44 0.44 78 1010.8
20260506190334 47 30 0.0 0.9 0.00 0.44 0.44 79 1010.6
20260506185831 47 72 0.9 1.7 0.00 0.44 0.44 78 1010.8
20260506185328 47 11 0.0 0.9 0.00 0.44 0.44 79 1010.6
20260506184825 47 6 0.0 0.0 0.00 0.44 0.44 80 1010.8
20260506184322 46 4 0.0 1.7 0.00 0.44 0.44 80 1010.6
20260506183820 47 357 0.0 0.0 0.00 0.44 0.44 79 1010.3
20260506183314 46 3 0.0 1.7 0.00 0.44 0.44 80 1010.4
20260506182812 47 14 0.0 0.9 0.00 0.44 0.44 80 1010.3
20260506182309 47 9 0.0 0.9 0.00 0.44 0.44 78 1010.4
20260506181807 47 8 0.0 0.0 0.00 0.44 0.44 79 1010.4
20260506181304 46 0 0.0 0.9 0.00 0.44 0.44 80 1010.6
20260506180801 46 2 0.9 1.7 0.00 0.44 0.44 80 1010.6
20260506180257 46 5 0.0 0.9 0.00 0.44 0.44 81 1010.6
20260506175753 46 338 0.0 0.9 0.00 0.44 0.44 80 1010.8
20260506175250 46 3 0.0 1.7 0.00 0.44 0.44 81 1010.9
20260506174748 46 351 0.9 2.6 0.00 0.44 0.44 80 1010.8
20260506174245 46 0 0.0 0.9 0.00 0.44 0.44 80 1010.9
20260506173743 46 0 0.0 0.9 0.00 0.44 0.44 82 1011.2
20260506173239 45 3 0.0 0.0 0.00 0.44 0.44 83 1011.1
20260506172736 45 6 0.9 0.9 0.00 0.44 0.44 82 1011.2
20260506172233 45 18 0.9 0.9 0.00 0.44 0.44 82 1011.5
20260506171730 45 359 0.0 0.9 0.00 0.44 0.44 83 1011.3
20260506171227 44 359 0.0 0.0 0.00 0.44 0.44 82 1011.4
20260506170725 44 2 0.0 0.9 0.00 0.44 0.44 83 1011.5
20260506170221 44 13 0.0 0.0 0.00 0.44 0.44 82 1011.3
20260506165720 44 0 0.0 0.9 0.00 0.44 0.44 83 1011.9
20260506165216 44 11 0.0 0.9 0.00 0.44 0.44 84 1011.7
20260506164714 44 81 0.9 0.9 0.00 0.44 0.44 85 1011.8
20260506164211 44 9 0.0 0.9 0.00 0.44 0.44 85 1011.8
20260506163707 44 356 0.0 0.9 0.00 0.44 0.44 86 1011.7
20260506163202 44 27 0.0 0.9 0.00 0.44 0.44 86 1011.7
20260506162658 44 347 0.0 0.9 0.00 0.44 0.44 87 1011.6
20260506162156 44 5 0.0 0.9 0.07 0.44 0.44 87 1011.9
20260506161653 44 2 0.0 0.9 0.07 0.44 0.44 89 1011.9
20260506161150 43 16 0.0 1.7 0.05 0.43 0.43 88 1011.8
20260506160648 43 8 0.0 0.0 0.05 0.43 0.43 88 1012.0
20260506160144 43 354 0.0 0.9 0.00 0.42 0.42 88 1012.1
20260506155643 43 10 0.0 0.9 0.00 0.42 0.42 89 1012.0
20260506155140 43 8 0.0 0.9 0.05 0.41 0.41 89 1012.2
20260506153242 43 357 0.9 0.9 0.12 0.41 0.41 89 1012.3
20260506152738 43 2 0.9 1.7 0.12 0.40 0.40 87 1012.2
20260506152236 43 6 0.0 0.0 0.05 0.39 0.39 88 1012.5
20260506151735 43 7 0.0 0.0 0.07 0.38 0.38 88 1012.3
20260506151231 43 7 0.0 0.9 0.07 0.38 0.38 87 1012.5
20260506150727 43 11 0.9 1.7 0.07 0.37 0.37 87 1012.1
20260506150225 43 9 0.0 0.0 0.07 0.37 0.37 87 1012.3
20260506145722 43 13 0.0 0.0 0.00 0.36 0.36 88 1012.3
20260506145218 43 17 0.0 0.9 0.00 0.36 0.36 88 1012.4
20260506144716 44 7 0.0 0.9 0.05 0.36 0.36 90 1012.2
20260506144212 44 4 0.0 0.9 0.05 0.36 0.36 89 1012.2
20260506143710 43 9 0.0 0.9 0.07 0.35 0.35 87 1012.3
20260506143208 43 2 0.0 0.9 0.07 0.35 0.35 87 1012.0
20260506142706 43 12 0.0 0.9 0.12 0.34 0.34 88 1012.1
20260506142203 43 9 0.0 0.9 0.12 0.34 0.34 89 1012.1
20260506141701 43 3 0.0 0.9 0.05 0.32 0.32 89 1012.3
20260506141159 43 6 0.0 0.9 0.12 0.32 0.32 88 1012.3
20260506140656 43 2 0.0 0.9 0.07 0.31 0.31 89 1012.3
20260506140153 43 13 0.0 0.9 0.05 0.30 0.30 89 1012.2
20260506135650 43 37 0.9 0.9 0.00 0.29 0.29 88 1012.2
20260506135146 43 9 0.0 0.9 0.07 0.29 0.29 88 1012.3
20260506134643 43 351 0.9 0.9 0.07 0.29 0.29 88 1012.2
20260506134139 43 14 0.9 0.9 0.05 0.28 0.28 88 1012.2
20260506133637 43 10 0.0 0.9 0.05 0.28 0.28 87 1012.0
20260506133133 43 10 0.9 0.9 0.07 0.27 0.27 88 1012.1
20260506132631 43 14 0.0 0.0 0.12 0.27 0.27 87 1012.0
20260506132127 43 65 0.9 1.7 0.12 0.26 0.26 87 1012.0
20260506131625 43 354 0.9 1.7 0.14 0.25 0.25 87 1012.1
20260506131121 43 27 0.9 1.7 0.07 0.24 0.24 89 1012.0
20260506130618 43 17 1.7 1.7 0.05 0.23 0.23 88 1012.0
20260506130116 43 19 0.0 2.6 0.05 0.23 0.23 87 1011.8
20260506125614 43 24 0.0 1.7 0.00 0.22 0.22 87 1012.0
20260506125111 43 19 0.0 0.0 0.07 0.22 0.22 86 1012.1
20260506124609 43 17 0.0 0.0 0.07 0.22 0.22 87 1012.0
20260506124107 43 18 1.7 1.7 0.05 0.21 0.21 86 1012.0
20260506123604 43 13 0.0 0.0 0.12 0.21 0.21 88 1012.0
20260506123102 43 10 0.0 0.9 0.12 0.20 0.20 87 1011.8
20260506122558 43 9 0.0 0.9 0.35 0.19 0.19 87 1011.8
20260506122057 43 27 0.9 0.9 0.31 0.18 0.18 87 1012.0
20260506121554 44 17 0.0 0.9 0.00 0.13 0.13 84 1012.1
20260506121050 44 17 0.0 0.9 0.05 0.13 0.13 84 1011.9
20260506120548 44 40 0.0 0.9 0.12 0.13 0.13 87 1012.2
20260506120045 45 14 0.0 0.9 0.14 0.12 0.12 87 1012.1
20260506115543 45 27 0.0 0.0 0.07 0.11 0.11 87 1012.3
20260506115041 45 19 0.0 0.0 0.05 0.10 0.10 86 1012.3
20260506114538 44 16 0.0 0.9 0.12 0.10 0.10 86 1012.3
20260506114037 45 59 0.0 0.9 0.12 0.09 0.09 86 1012.4
20260506113534 45 23 0.9 1.7 0.05 0.08 0.08 85 1012.4
20260506113031 45 22 0.0 0.9 0.07 0.07 0.07 85 1012.4
20260506112528 45 21 0.0 0.9 0.12 0.07 0.07 84 1012.5
20260506112025 45 27 0.0 1.7 0.05 0.06 0.06 83 1012.4
20260506111523 45 87 1.7 2.6 0.07 0.05 0.05 83 1012.4
20260506111020 45 16 0.0 1.7 0.12 0.05 0.05 83 1012.4
20260506110518 46 358 0.0 0.9 0.05 0.04 0.04 84 1012.2
20260506110015 46 47 0.9 0.9 0.07 0.03 0.03 82 1012.4
20260506105511 46 25 0.0 0.9 0.07 0.03 0.03 81 1012.2
20260506105008 46 22 0.0 0.9 0.05 0.02 0.02 79 1012.2
20260506104506 47 89 0.9 0.9 0.05 0.02 0.02 79 1011.8
20260506104004 47 25 0.0 0.0 0.00 0.01 0.01 78 1011.9
20260506103501 47 40 0.0 0.9 0.07 0.01 0.01 78 1011.7
20260506102957 47 54 0.0 1.7 0.07 0.01 0.01 79 1011.7
20260506102456 47 37 0.9 1.7 0.00 0.00 0.00 79 1011.6
20260506101953 47 28 0.0 0.9 0.00 0.00 0.00 82 1011.3
20260506101449 47 23 0.0 0.9 0.00 0.00 0.00 83 1011.6
20260506100946 47 25 0.0 0.9 0.00 0.00 0.00 83 1011.4
20260506100445 47 25 0.0 0.9 0.00 0.00 0.00 82 1011.6
20260506095943 47 22 0.9 1.7 0.00 0.00 0.00 82 1011.6
20260506095441 48 18 0.0 0.9 0.00 0.00 0.00 81 1011.4
20260506094936 48 344 0.9 1.7 0.00 0.00 0.00 80 1011.7
20260506094435 48 46 0.9 1.7 0.00 0.00 0.00 77 1011.7
20260506093932 48 46 0.9 1.7 0.00 0.00 0.00 77 1011.6
20260506093430 48 19 0.0 0.0 0.00 0.00 0.00 76 1011.6
20260506092928 48 20 0.0 0.9 0.00 0.00 0.00 76 1011.4
20260506092426 48 327 0.9 3.5 0.00 0.00 0.00 76 1011.3
20260506091922 48 22 1.7 2.6 0.00 0.00 0.00 76 1011.3
20260506091420 48 33 1.7 2.6 0.00 0.00 0.00 76 1011.2
20260506090917 48 28 0.0 0.9 0.00 0.00 0.00 76 1011.2
20260506090415 48 357 0.0 0.9 0.00 0.00 0.00 76 1011.1
20260506085911 49 24 0.0 0.9 0.00 0.00 0.00 76 1011.1
20260506085408 49 6 0.0 0.9 0.00 0.00 0.00 76 1011.0
20260506084904 49 6 0.0 0.9 0.00 0.00 0.00 76 1010.9
20260506084401 49 23 0.0 0.9 0.00 0.00 0.00 76 1011.0
20260506083857 49 30 0.0 0.9 0.00 0.00 0.00 76 1011.2
20260506083355 49 36 0.0 1.7 0.00 0.00 0.00 76 1011.1
20260506082852 49 237 0.9 0.9 0.00 0.00 0.00 76 1011.4
20260506082349 49 49 1.7 2.6 0.00 0.00 0.00 76 1011.5
20260506081844 49 28 0.9 2.6 0.00 0.00 0.00 76 1011.3
20260506081343 49 3 0.9 1.7 0.00 0.00 0.00 75 1011.5
20260506080840 49 31 0.0 0.0 0.00 0.00 0.00 76 1011.2
20260506080337 49 30 0.0 0.9 0.00 0.00 0.00 76 1011.2
20260506073321 49 16 0.0 2.6 0.00 0.00 0.00 75 1011.2
20260506072818 49 11 0.0 1.7 0.00 0.00 0.00 75 1011.1
20260506072315 49 170 0.9 2.6 0.00 0.00 0.00 75 1011.1
20260506071813 49 19 0.9 5.2 0.00 0.00 0.00 75 1011.1
20260506071311 49 330 2.6 3.5 0.00 0.00 0.00 75 1011.2
20260506070808 49 110 0.9 5.2 0.00 0.00 0.00 75 1011.1
20260506070305 49 20 0.0 1.7 0.00 0.00 0.00 75 1011.1
20260506062241 50 30 0.0 3.5 0.00 0.00 0.00 76 1010.9
20260506061737 50 112 3.5 5.2 0.00 0.00 0.00 76 1010.5
20260506061235 50 39 0.9 3.5 0.00 0.00 0.00 76 1010.3
20260506060733 50 19 0.9 2.6 0.00 0.00 0.00 77 1010.5
20260506060230 50 62 2.6 3.5 0.00 0.00 0.00 77 1010.6
20260506051202 51 22 0.9 3.5 0.00 0.00 0.00 78 1010.6
20260506050700 51 24 0.9 2.6 0.00 0.00 0.00 78 1010.4
20260506050157 51 348 0.0 0.9 0.00 0.00 0.00 78 1010.2
20260506044648 52 1 0.9 1.7 0.00 0.00 0.00 78 1010.2
20260506044145 52 32 1.7 1.7 0.00 0.00 0.00 78 1010.2
20260506043642 52 3 0.9 2.6 0.00 0.00 0.00 78 1010.0
20260506043140 52 19 0.9 1.7 0.00 0.00 0.00 78 1009.8
20260506042639 52 13 0.9 2.6 0.00 0.00 0.00 78 1009.8
20260506042136 52 24 1.7 3.5 0.00 0.00 0.00 77 1009.6
20260506041635 52 15 1.7 3.5 0.00 0.00 0.00 77 1009.6
20260506041131 52 28 1.7 2.6 0.00 0.00 0.00 76 1009.8